Wind_Speed
12 14 14 11 11 12 10 5 2 3 7 9 9 10 11 11 12 12 11 11 10 11 9 7 7 6 5 5 5 4 3 3 5 9 6 3 6 6 8 9 8 11 8
10 11 10 11 9 8 9 9 5 2 0 4 9 12 14 12 12 12 11 12 12 11 10 9 8 7 7 7 6 6 6 6 8 8 8 5 6 9 8 9 13 14 15
11 10 7 13 12 10 7 7 7 6 5 4 4 11 18 17 15 12 11 12 12 12 11 10 10 8 8 8 8 7 6 7 7 8 7 5 8 10 4 8 9 12 16
8 6 9 12 14 10 7 3 3 4 4 5 4 3 19 17 13 14 15 15 14 13 13 12 10 9 9 9 9 9 8 8 8 9 6 2 6 7 6 6 8 12 15
5 4 5 10 13 14 13 6 4 3 5 6 3 1 11 14 14 14 14 15 15 15 16 15 13 11 11 11 10 10 11 11 10 9 7 7 8 10 10 9 9 9 13
2 4 5 11 8 10 12 9 6 6 8 9 8 4 4 12 14 13 12 13 14 17 17 16 16 15 12 12 13 12 12 13 11 11 10 10 10 12 12 12 13 14 14
8 6 5 11 8 10 12 14 13 12 12 8 9 9 7 8 10 12 13 13 13 13 13 15 17 16 14 14 14 14 13 14 15 14 14 13 14 14 13 16 16 19 18
13 14 9 10 12 11 16 15 18 14 12 11 12 12 12 10 10 12 15 16 16 14 14 15 17 17 17 15 15 16 16 17 17 17 16 16 15 14 15 16 19 18 12
13 17 15 15 14 15 19 22 17 16 14 13 16 17 15 16 14 13 13 15 18 19 20 18 19 19 19 18 18 19 20 19 20 18 17 17 15 15 15 17 17 17 15
16 20 19 18 13 12 18 21 13 17 20 19 23 19 21 19 18 14 15 16 17 18 21 23 21 21 22 21 20 19 19 17 17 17 16 16 14 16 14 15 15 14 14
20 20 19 16 18 14 17 15 18 22 23 23 24 29 26 27 22 20 13 15 16 17 22 24 21 20 21 21 22 21 19 18 15 14 21 17 14 9 10 14 9 8 9
25 24 22 24 21 22 21 21 24 25 26 28 29 32 21 25 29 25 17 12 16 16 18 22 23 21 21 21 22 21 20 19 16 16 16 12 12 6 11 8 8 8 6
31 31 29 27 25 27 27 26 26 25 21 21 20 25 15 26 23 21 11 11 14 14 16 17 19 19 18 18 19 19 20 20 20 17 17 8 14 13 11 10 8 7 4
24 26 28 29 29 31 30 31 30 25 26 23 14 14 11 8 12 12 9 12 14 14 14 15 15 15 13 13 13 14 16 18 20 18 16 13 13 12 12 13 11 10 9
24 26 29 29 30 30 31 33 30 29 26 27 24 20 13 13 15 14 12 13 14 14 14 12 14 13 12 12 12 12 13 14 17 16 15 15 13 12 12 11 12 13 12
26 29 31 33 34 34 35 35 34 31 29 27 25 19 19 16 17 19 16 15 14 13 15 15 15 14 15 17 16 16 15 15 15 16 16 15 14 14 15 14 13 14 14
30 32 33 34 34 37 38 37 33 28 21 20 23 21 18 27 18 25 24 24 20 16 15 17 18 17 18 20 21 19 19 16 17 17 18 18 19 19 19 18 18 17 17
36 37 38 38 39 39 43 41 36 28 27 25 24 24 25 26 24 25 32 35 30 13 13 14 22 19 20 22 23 21 20 20 21 23 21 22 22 21 22 23 22 22 21
33 36 38 40 40 38 37 37 35 31 32 33 27 27 29 29 30 32 30 29 26 9 13 21 25 19 20 25 24 23 22 24 23 22 23 24 24 23 25 26 27 27 29
30 33 34 36 39 39 39 39 40 37 37 38 34 31 33 36 36 36 31 29 25 22 22 26 27 22 22 26 27 28 25 26 27 27 24 23 24 24 25 28 31 32 34
30 32 35 38 40 41 41 43 43 43 43 42 39 37 35 36 38 37 35 37 34 34 32 28 29 34 32 31 35 35 34 31 30 31 30 28 28 27 29 29 32 38 39
28 29 32 36 38 39 39 38 41 43 43 42 42 41 41 39 38 41 43 42 40 43 44 42 41 40 39 42 41 42 42 40 37 37 34 32 33 33 36 34 32 31 38
32 34 35 37 40 41 42 42 42 43 45 47 46 45 47 47 46 46 45 44 46 47 50 52 51 51 49 47 44 48 50 47 45 42 40 38 38 37 37 39 37 40 39
34 37 38 39 41 46 47 48 48 47 47 48 48 49 49 49 51 50 50 48 49 49 50 54 57 57 54 49 48 50 48 49 48 46 44 45 44 40 42 41 37 40 39
37 39 40 42 41 43 45 46 48 48 51 53 53 53 53 52 53 52 53 52 51 52 54 53 51 52 49 47 43 48 51 51 48 47 48 44 41 42 43 40 38 34 34
42 45 47 49 49 50 51 52 55 56 54 55 56 57 56 56 58 58 57 56 56 55 57 57 56 56 54 46 44 42 43 44 45 44 41 40 41 43 42 40 38 34 36
Wind_Direction
59 55 62 78 86 76 66 52 60 210 213 202 207 212 208 208 220 228 231 237 234 220 221 235 248 256 270 272 288 273 249 278 289 306 289 311 333 329 326 330 325 302 293
48 51 55 75 83 87 73 63 51 29 234 220 215 213 216 214 218 224 229 235 234 230 235 239 243 249 250 262 264 272 252 256 286 309 314 327 322 325 301 311 315 326 321
10 31 64 72 62 55 62 63 52 24 1 318 261 225 212 214 216 221 226 229 231 232 237 240 244 250 258 261 262 265 259 253 265 284 311 299 314 305 279 311 335 356 0
336 19 95 83 59 50 48 51 61 26 7 349 328 229 206 205 204 211 223 230 230 233 236 243 246 251 261 258 259 265 261 258 271 279 292 293 320 331 336 328 347 355 346
59 33 79 78 65 52 44 25 53 354 343 332 352 184 194 198 201 214 222 233 239 243 246 247 247 248 255 257 251 260 262 265 265 276 303 306 316 320 311 299 286 293 301
317 356 352 5 30 33 31 25 7 346 332 317 314 300 231 210 210 217 225 229 235 243 247 248 247 251 256 257 254 261 264 266 268 266 279 288 296 295 304 302 284 305 285
245 284 320 341 347 346 354 3 353 338 325 300 298 298 282 257 248 242 232 233 238 245 255 249 244 247 253 256 263 266 266 268 273 274 274 274 280 287 287 292 296 280 292
255 259 281 302 328 337 314 360 351 345 334 318 294 287 287 272 263 260 254 248 250 245 238 243 246 247 249 252 262 266 266 270 276 280 278 273 277 286 283 290 298 297 297
237 250 265 298 320 335 326 341 351 355 355 342 308 273 273 274 264 259 256 255 252 251 246 238 244 254 254 253 258 262 267 272 275 276 273 276 274 273 275 286 289 297 297
235 249 264 283 293 307 313 324 328 334 339 341 338 315 275 268 262 260 271 271 261 257 254 248 243 250 260 262 260 259 261 261 266 268 267 267 268 264 282 294 291 288 293
235 245 254 262 261 272 295 310 312 323 326 330 330 313 298 265 262 251 252 268 267 256 260 260 251 247 254 259 261 261 261 261 261 268 269 253 268 277 278 290 287 285 296
229 237 242 269 249 260 273 294 304 317 323 317 318 314 292 264 250 253 248 258 269 266 255 256 252 249 251 261 268 269 265 260 258 259 257 254 284 286 283 277 260 267 282
241 237 245 251 254 262 272 285 295 307 304 321 314 325 258 236 215 232 236 253 262 266 261 253 250 255 260 264 271 271 263 253 250 247 273 240 266 252 264 276 280 265 270
244 247 249 253 260 268 276 284 287 292 294 297 312 315 295 249 232 229 239 251 259 260 262 248 243 247 260 271 276 270 263 248 240 241 256 270 277 270 271 274 283 293 297
238 243 253 260 264 272 283 280 290 282 288 290 289 303 278 270 245 229 228 243 254 257 258 252 243 238 245 251 262 263 259 251 243 247 250 265 270 275 275 282 292 296 298
255 257 260 264 272 280 285 285 288 287 292 281 274 281 289 278 277 267 243 228 237 244 251 250 250 256 253 256 256 252 251 257 253 251 259 266 272 270 271 273 275 278 282
258 266 271 273 276 282 285 289 289 289 280 276 275 272 259 249 240 258 248 243 220 217 236 252 258 258 258 260 259 254 254 251 253 256 263 265 264 264 268 271 269 268 272
253 261 268 272 275 277 285 290 292 291 290 286 276 276 279 282 279 280 249 243 224 200 259 238 249 246 255 256 256 255 258 258 260 261 258 262 267 272 278 281 284 286 287
245 250 256 264 269 272 275 277 280 282 282 285 285 266 266 272 270 272 268 279 291 265 258 279 256 254 254 256 257 258 254 258 262 264 267 271 276 282 287 291 293 293 294
253 249 250 253 260 264 267 271 274 276 272 277 278 271 259 264 269 266 264 273 272 265 259 269 267 251 255 265 266 263 257 258 262 267 270 273 277 281 289 291 290 288 288
263 259 255 256 259 264 268 269 271 273 278 278 277 274 266 261 258 262 264 259 255 250 252 254 261 249 251 256 261 266 262 258 258 263 266 266 268 268 272 278 305 294 292
274 268 267 267 268 270 272 273 274 274 274 274 276 276 273 271 264 258 259 264 262 258 253 256 261 263 263 263 262 261 261 260 258 257 254 259 265 267 272 278 297 284 287
272 273 273 273 274 274 273 271 268 268 268 268 268 266 269 269 268 267 263 259 257 255 256 258 258 264 262 260 262 262 262 262 262 259 257 263 264 273 282 279 282 287 291
273 272 271 269 269 272 273 273 273 272 268 265 263 264 265 266 267 267 267 265 262 260 256 255 255 261 257 254 258 255 255 260 263 266 266 266 268 269 273 275 279 285 294
277 277 277 277 277 276 276 275 273 270 268 266 265 264 265 265 264 263 265 265 266 266 263 259 256 255 259 254 248 252 249 253 260 262 263 265 269 269 271 274 276 285 294
279 279 279 278 277 276 274 274 274 272 270 268 266 264 263 264 265 265 265 266 266 266 264 262 259 256 255 257 256 256 248 246 252 258 262 264 267 268 266 263 272 272 284
Height
5957 5957 5956 5955 5954 5954 5953 5953 5953 5952 5952 5952 5954 5954 5955 5955 5956 5956 5956 5957 5959 5960 5960 5960 5960 5960 5960 5958 5957 5957 5957 5956 5954 5953 5952 5951 5949 5948 5947 5945 5945 5941 5939
5959 5958 5957 5956 5956 5955 5955 5955 5954 5953 5953 5952 5952 5952 5953 5953 5953 5954 5955 5956 5958 5959 5959 5959 5959 5959 5959 5958 5957 5956 5956 5954 5953 5953 5951 5950 5949 5948 5946 5945 5944 5941 5939
5960 5959 5958 5957 5956 5955 5955 5955 5954 5953 5952 5951 5951 5949 5949 5951 5951 5952 5953 5954 5954 5955 5956 5957 5957 5957 5957 5956 5956 5955 5954 5954 5953 5952 5951 5950 5948 5947 5945 5945 5944 5941 5939
5963 5961 5959 5957 5956 5955 5955 5954 5953 5952 5951 5950 5948 5946 5946 5948 5950 5950 5951 5951 5952 5952 5953 5953 5953 5954 5954 5954 5954 5954 5953 5953 5952 5950 5950 5949 5949 5947 5947 5945 5944 5941 5939
5964 5963 5961 5959 5958 5956 5954 5952 5951 5951 5950 5949 5947 5946 5945 5946 5946 5947 5947 5948 5949 5949 5949 5950 5950 5951 5951 5952 5952 5953 5952 5952 5951 5950 5949 5949 5948 5947 5946 5945 5943 5941 5938
5964 5963 5962 5960 5958 5956 5954 5952 5951 5950 5949 5948 5947 5946 5946 5945 5945 5944 5943 5944 5944 5944 5945 5946 5947 5948 5948 5949 5949 5950 5950 5950 5949 5949 5948 5947 5947 5946 5944 5943 5940 5938 5937
5964 5962 5961 5960 5958 5955 5954 5954 5952 5949 5948 5947 5946 5945 5944 5944 5944 5944 5943 5942 5940 5940 5941 5942 5943 5944 5945 5946 5947 5947 5948 5948 5947 5947 5947 5946 5945 5944 5942 5941 5939 5937 5935
5961 5960 5959 5959 5957 5956 5953 5953 5948 5949 5946 5945 5944 5943 5942 5941 5940 5940 5940 5941 5940 5938 5937 5938 5939 5940 5941 5942 5943 5944 5944 5944 5944 5944 5944 5944 5944 5942 5940 5938 5937 5936 5934
5959 5957 5957 5956 5955 5954 5949 5945 5946 5947 5944 5943 5942 5940 5940 5938 5937 5936 5936 5936 5937 5938 5938 5935 5935 5937 5938 5938 5939 5940 5941 5941 5941 5941 5941 5940 5940 5940 5937 5936 5934 5933 5931
5955 5954 5955 5954 5954 5953 5948 5946 5946 5944 5942 5941 5940 5939 5938 5936 5934 5933 5933 5933 5933 5934 5936 5934 5932 5933 5935 5935 5935 5936 5936 5937 5938 5938 5937 5935 5935 5934 5933 5931 5930 5929 5928
5952 5952 5951 5951 5950 5949 5946 5945 5942 5940 5938 5937 5934 5932 5930 5930 5932 5931 5929 5930 5931 5931 5933 5933 5931 5930 5931 5932 5932 5933 5933 5934 5935 5935 5932 5932 5929 5928 5929 5927 5926 5926 5924
5947 5947 5946 5946 5946 5944 5943 5943 5941 5937 5933 5931 5929 5922 5915 5918 5924 5927 5925 5926 5928 5928 5928 5929 5928 5927 5927 5929 5929 5929 5930 5931 5933 5931 5929 5928 5926 5926 5926 5924 5923 5923 5922
5942 5942 5942 5942 5941 5939 5939 5939 5938 5935 5931 5927 5924 5918 5906 5899 5914 5920 5919 5920 5923 5924 5925 5925 5924 5924 5925 5925 5925 5926 5926 5927 5928 5929 5924 5925 5926 5926 5925 5924 5923 5922 5920
5938 5938 5938 5938 5936 5935 5934 5933 5932 5930 5926 5924 5922 5919 5917 5912 5913 5913 5913 5916 5918 5920 5920 5921 5921 5921 5922 5922 5922 5923 5922 5922 5923 5924 5923 5924 5924 5924 5924 5923 5922 5922 5920
5930 5930 5930 5930 5929 5928 5927 5925 5923 5922 5920 5918 5917 5915 5913 5912 5911 5908 5908 5911 5913 5914 5917 5916 5916 5917 5918 5919 5919 5920 5920 5919 5920 5923 5923 5922 5922 5922 5922 5922 5921 5920 5919
5923 5923 5923 5922 5922 5920 5918 5917 5915 5914 5914 5911 5909 5909 5910 5910 5910 5911 5909 5907 5908 5909 5910 5910 5911 5912 5914 5915 5916 5918 5918 5918 5919 5921 5922 5921 5920 5919 5918 5919 5917 5917 5915
5915 5915 5914 5914 5914 5912 5910 5908 5906 5907 5907 5905 5904 5904 5904 5900 5901 5905 5906 5905 5899 5899 5904 5904 5905 5906 5909 5911 5912 5913 5914 5915 5916 5916 5917 5917 5917 5917 5916 5916 5915 5913 5912
5907 5906 5905 5904 5903 5903 5900 5900 5898 5897 5897 5897 5898 5896 5895 5891 5894 5896 5896 5883 5875 5881 5901 5896 5894 5900 5903 5907 5907 5909 5910 5910 5912 5912 5913 5914 5914 5915 5915 5915 5915 5914 5913
5896 5897 5896 5895 5894 5894 5893 5892 5891 5889 5888 5888 5889 5889 5888 5888 5888 5888 5886 5880 5878 5879 5884 5888 5895 5895 5897 5899 5901 5904 5905 5905 5906 5908 5910 5911 5912 5913 5912 5911 5911 5910 5909
5886 5886 5886 5885 5884 5883 5883 5882 5881 5881 5878 5877 5878 5880 5879 5879 5878 5878 5877 5875 5874 5878 5882 5884 5885 5888 5893 5895 5896 5897 5900 5900 5901 5902 5903 5905 5906 5906 5907 5906 5904 5903 5903
5876 5876 5875 5874 5874 5873 5873 5872 5871 5870 5868 5867 5866 5867 5868 5868 5868 5869 5870 5872 5873 5874 5877 5879 5881 5884 5885 5887 5888 5889 5891 5893 5894 5895 5895 5896 5897 5897 5895 5894 5895 5894 5893
5866 5866 5866 5864 5863 5863 5863 5862 5861 5860 5860 5858 5857 5855 5856 5856 5857 5857 5858 5859 5862 5863 5865 5868 5871 5873 5876 5878 5879 5879 5880 5881 5883 5884 5885 5885 5886 5888 5889 5888 5886 5885 5882
5856 5855 5855 5853 5851 5850 5850 5850 5850 5849 5847 5847 5846 5845 5843 5843 5844 5844 5846 5847 5848 5851 5853 5855 5859 5862 5864 5866 5868 5868 5867 5868 5871 5873 5875 5877 5877 5879 5879 5879 5877 5875 5870
5847 5845 5844 5843 5842 5838 5837 5836 5835 5835 5834 5832 5832 5832 5831 5831 5830 5831 5833 5834 5836 5839 5841 5843 5845 5847 5852 5854 5854 5855 5855 5856 5860 5862 5864 5866 5866 5868 5869 5870 5867 5863 5859
5834 5833 5831 5829 5830 5828 5825 5822 5821 5820 5818 5818 5818 5818 5817 5817 5817 5818 5818 5820 5822 5824 5825 5828 5831 5833 5836 5840 5841 5841 5844 5844 5845 5850 5851 5854 5855 5856 5856 5856 5854 5852 5848
5822 5820 5817 5814 5813 5812 5809 5806 5801 5799 5800 5801 5801 5801 5801 5801 5800 5800 5802 5803 5805 5807 5808 5811 5815 5818 5821 5824 5827 5829 5831 5833 5835 5836 5840 5843 5844 5843 5844 5844 5843 5842 5839